This is the latest recevied weather packets stored in our database for station/object KT2UU-13. If no packets are shown the sender has not sent any weather packets the latest 10 day(s).
| Time | Temp. | Humidity | Pressure | Rain* | Wind** | Luminosity | Snow |
|---|---|---|---|---|---|---|---|
| 1777248056 | 23.89° C | 68% | 1013.8 hPa | 0 mm | - | - | - |
| 1777247754 | 25° C | 66% | 1013.9 hPa | 0 mm | - | - | - |
| 1777247452 | 26.11° C | 62% | 1013.9 hPa | 0 mm | - | - | - |
| 1777247149 | 26.67° C | 59% | 1013.8 hPa | 0 mm | - | - | - |
| 1777246846 | 26.67° C | 60% | 1013.7 hPa | 0 mm | - | - | - |
| 1777246542 | 26.67° C | 59% | 1013.6 hPa | 0 mm | - | - | - |
| 1777246239 | 25.56° C | 61% | 1013.9 hPa | 0 mm | - | - | - |
| 1777245937 | 25.56° C | 60% | 1013.5 hPa | 0 mm | - | - | - |
| 1777245635 | 25.56° C | 59% | 1013.6 hPa | 0 mm | - | - | - |
| 1777245332 | 25.56° C | 60% | 1013.3 hPa | 0 mm | - | - | - |
| 1777245027 | 26.11° C | 56% | 1013.4 hPa | 0 mm | - | - | - |
| 1777244722 | 25.56° C | 56% | 1013.6 hPa | 0 mm | - | - | - |
| 1777244420 | 25.56° C | 56% | 1013.4 hPa | 0 mm | - | - | - |
| 1777244116 | 26.11° C | 50% | 1013.3 hPa | 0 mm | - | - | - |
| 1777243815 | 26.11° C | 48% | 1013.5 hPa | 0 mm | - | - | - |
| 1777243511 | 26.11° C | 49% | 1013.4 hPa | 0 mm | - | - | - |
| 1777243206 | 26.67° C | 47% | 1013.5 hPa | 0 mm | - | - | - |
| 1777242902 | 26.67° C | 48% | 1013.4 hPa | 0 mm | - | - | - |
| 1777242600 | 27.22° C | 50% | 1013.4 hPa | 0 mm | - | - | - |
| 1777242295 | 27.22° C | 48% | 1013.4 hPa | 0 mm | - | - | - |
| 1777241994 | 27.78° C | 44% | 1013.5 hPa | 0 mm | - | - | - |
| 1777241690 | 27.78° C | 47% | 1013.4 hPa | 0 mm | - | - | - |
| 1777241387 | 28.33° C | 45% | 1013.2 hPa | 0 mm | - | - | - |
| 1777241084 | 27.78° C | 44% | 1013.3 hPa | 0 mm | - | - | - |
| 1777240783 | 27.22° C | 44% | 1013.1 hPa | 0 mm | - | - | - |
* Rain latest hour (hover to see other rain measurements)
** Current wind speed in m/s (hover to see current wind gust speed)